Location: Nairn
(57.5833°N, 3.8667°W)
Time: 00:06:07
(UTC+00:00)

N. Korean satellite - Pass Details

Date: 03 November 2020
Orbit: 453 x 503 km, 97.2° (Epoch: 04 December)

Event Time Altitude Azimuth Distance (km) Brightness Sun altitude
Rises 17:41:55 0° 200° (SSW) 2,512 10.7 -10.7°
Reaches altitude 10° 17:44:21 10° 217° (SW) 1,630 10.0 -11.0°
Maximum altitude 17:47:04 21° 268° (W) 1,108 9.5 -11.3°
Drops below altitude 10° 17:49:46 10° 319° (NW) 1,623 9.6 -11.7°
Sets 17:52:11 0° 336° (NNW) 2,496 10.4 -12.0°
